GW4692 Weather Reports


time (UTC)temp
C
wind
direction
speed
KPH
gust
KPH
rain 1hr
cm
rain 24hr
cm
rain mn
cm
humidity
%
barometer
mb
20260507224549 11 38 0.0 0.0 0.00 0.13 0.00 70 1006.3
20260507223047 11 38 0.0 6.4 0.00 0.13 0.00 72 1006.4
20260507221544 11 42 3.2 6.4 0.00 0.13 0.00 73 1006.3
20260507220040 11 29 1.6 8.0 0.00 0.13 0.00 70 1006.3
20260507214602 11 35 4.8 9.7 0.00 0.13 0.13 72 1006.1
20260507213040 12 36 1.6 4.8 0.00 0.13 0.13 73 1005.9
20260507211538 12 36 4.8 6.4 0.00 0.13 0.13 74 1005.9
20260507210049 12 16 1.6 3.2 0.00 0.13 0.13 73 1005.9
20260507204534 12 15 1.6 3.2 0.00 0.13 0.13 75 1005.7
20260507203044 12 261 0.0 4.8 0.00 0.13 0.13 76 1005.8
20260507201540 13 43 3.2 4.8 0.00 0.13 0.13 76 1005.6
20260507200036 13 126 1.6 3.2 0.00 0.13 0.13 76 1005.3
20260507194559 15 126 1.6 3.2 0.00 0.13 0.13 71 1005.0
20260507193035 15 126 1.6 3.2 0.00 0.13 0.13 67 1004.9
20260507191533 15 187 0.0 0.0 0.00 0.13 0.13 64 1004.6
20260507190033 16 187 0.0 1.6 0.00 0.13 0.13 63 1004.4
20260507184534 16 187 1.6 3.2 0.00 0.41 0.13 62 1004.4
20260507183035 17 187 0.0 3.2 0.00 0.41 0.13 61 1004.2
20260507181529 17 206 3.2 6.4 0.00 0.41 0.13 60 1004.2
20260507180033 18 201 3.2 6.4 0.00 0.41 0.13 60 1004.0
20260507174536 18 230 3.2 11.3 0.00 0.41 0.13 56 1003.8
20260507173035 18 202 4.8 9.7 0.00 0.41 0.13 56 1003.7
20260507171527 19 215 4.8 9.7 0.00 0.41 0.13 56 1003.7
20260507170026 20 217 1.6 11.3 0.00 0.41 0.13 50 1003.6
20260507164526 20 253 0.0 9.7 0.00 0.41 0.13 46 1003.6
20260507163026 20 249 3.2 9.7 0.00 0.41 0.13 49 1003.6
20260507161532 19 210 1.6 12.9 0.00 0.41 0.13 49 1003.6
20260507160025 20 213 3.2 12.9 0.00 0.41 0.13 52 1003.6
20260507154531 20 197 0.0 11.3 0.00 0.43 0.13 48 1003.6
20260507153035 20 139 0.0 4.8 0.00 0.43 0.13 47 1003.6
20260507151521 20 218 11.3 16.1 0.00 0.43 0.13 47 1003.6
20260507150019 20 276 4.8 12.9 0.00 0.43 0.13 49 1003.6
20260507144518 20 211 6.4 14.5 0.00 1.40 0.13 51 1003.8
20260507143022 19 230 1.6 17.7 0.00 1.40 0.13 52 1003.8
20260507141515 19 264 3.2 11.3 0.00 1.40 0.13 53 1003.9
20260507140013 18 192 0.0 8.0 0.00 1.40 0.13 54 1004.1
20260507134513 19 249 12.9 19.3 0.00 1.78 0.13 60 1004.1
20260507133011 18 271 4.8 16.1 0.00 1.78 0.13 59 1004.2
20260507131615 18 290 3.2 19.3 0.00 1.78 0.13 56 1004.3
20260507130108 18 259 14.5 20.9 0.00 1.78 0.13 63 1004.5
20260507124510 18 248 11.3 17.7 0.00 1.78 0.13 60 1004.5
20260507123005 17 219 3.2 16.1 0.00 1.78 0.13 64 1004.6
20260507121503 17 234 6.4 12.9 0.00 1.78 0.13 62 1004.6
20260507120002 17 325 4.8 11.3 0.00 1.83 0.13 64 1004.7
20260507114501 16 288 3.2 6.4 0.00 1.83 0.13 68 1004.9
20260507113002 16 277 8.0 11.3 0.00 1.83 0.13 70 1005.0
20260507111503 16 311 3.2 9.7 0.00 1.83 0.13 66 1005.2
20260507104600 17 251 0.0 11.3 0.00 1.83 0.13 66 1005.4
20260507103058 17 180 3.2 12.9 0.00 1.83 0.13 66 1005.6
20260507101557 16 359 1.6 8.0 0.00 1.83 0.13 67 1005.6
20260507100053 16 145 0.0 12.9 0.00 1.83 0.13 69 1005.7
20260507094552 16 236 6.4 16.1 0.00 1.83 0.13 70 1005.7
20260507093054 16 205 4.8 12.9 0.00 1.83 0.13 69 1005.7
20260507091548 16 238 1.6 11.3 0.00 1.83 0.13 69 1005.7
20260507090044 15 258 3.2 12.9 0.00 1.83 0.13 70 1005.7
20260507084543 15 284 1.6 11.3 0.00 2.21 0.13 70 1005.7
20260507083129 15 307 1.6 6.4 0.00 2.21 0.13 72 1005.6
20260507081524 15 47 3.2 6.4 0.00 2.21 0.13 72 1005.7
20260507080122 14 68 3.2 8.0 0.00 2.21 0.13 73 1005.6
20260507074528 14 32 1.6 8.0 0.00 2.31 0.13 77 1005.4
20260507073034 13 51 4.8 8.0 0.00 2.31 0.13 77 1005.5
20260507070059 12 13 1.6 4.8 0.00 2.31 0.13 77 1005.4
20260507063105 11 22 3.2 8.0 0.00 2.31 0.13 74 1005.0
20260507061535 11 10 1.6 6.4 0.00 2.31 0.13 72 1004.9
20260507060158 11 18 3.2 8.0 0.00 2.31 0.13 72 1004.9
20260507054528 11 332 3.2 9.7 0.00 2.34 0.13 73 1004.8
20260507053149 10 36 4.8 11.3 0.00 2.34 0.13 74 1004.5
20260507051526 10 23 4.8 11.3 0.00 2.34 0.13 72 1004.4
20260507050036 10 15 6.4 11.3 0.00 2.34 0.13 71 1004.2
20260507044600 10 22 4.8 12.9 0.00 2.39 0.13 72 1004.1
20260507043053 10 13 6.4 11.3 0.00 2.39 0.13 72 1003.9
20260507041611 10 17 6.4 11.3 0.00 2.39 0.13 71 1003.9
20260507040010 10 19 6.4 14.5 0.00 2.39 0.13 71 1003.8
20260507034512 10 28 4.8 14.5 0.05 2.41 0.13 70 1003.8
20260507033008 10 14 6.4 12.9 0.05 2.41 0.13 70 1003.9
20260507031530 10 36 9.7 14.5 0.05 2.41 0.13 70 1003.7
20260507024653 10 31 4.8 11.3 0.00 2.39 0.08 70 1003.7
20260507023044 10 48 4.8 12.9 0.00 2.39 0.08 71 1003.7
20260507021538 10 36 8.0 11.3 0.03 2.39 0.08 70 1003.7
20260507020145 10 9 4.8 6.4 0.03 2.39 0.08 70 1003.9
20260507014533 10 325 1.6 4.8 0.03 2.39 0.08 70 1003.9
20260507013056 10 32 4.8 12.9 0.05 2.39 0.05 70 1003.6
20260507011558 10 348 6.4 12.9 0.05 2.39 0.05 70 1003.6
20260507010044 10 32 8.0 11.3 0.05 2.39 0.05 70 1003.5
20260507004615 10 15 3.2 4.8 0.05 2.39 0.05 70 1003.5
20260507003153 10 38 0.0 4.8 0.03 2.36 0.03 70 1003.5
20260507001525 10 20 0.0 4.8 0.03 2.36 0.03 70 1003.5
20260507000020 10 29 3.2 9.7 0.03 2.36 0.03 70 1003.4
20260506234538 10 22 4.8 12.9 0.00 2.34 0.00 71 1003.5
20260506231602 10 11 6.4 11.3 0.00 2.34 0.00 70 1003.4
20260506231514 10 7 6.4 14.5 0.00 2.34 0.00 70 1003.4
20260506230059 10 353 8.0 12.9 0.00 2.34 0.00 70 1003.1